When you browse on this site, cookies collect data to enhance your experience and personalize the content and advertising you see.
Visit our Privacy Policy to learn more. By continuing to use the site, you agree to this use of cookies and data.
  • în România
  • Lista ţărilor
  • Pe 7 zile
  • Temperatura apei
  • Hartă satelitară
  • Meteo pe hartă
  • Widget-uri
  • user-avatar
    Intrare

    Meteo pe oră la Lipno

    Astăzi, 26 Martie, Marţi

    Timp Temperatura Precipitaţii Vânt Presiune Umiditate
    00:00 +1°C° 0 mm 3 m/s 754 mmHg 90%
    01:00 +1°C° 0 mm 2 m/s 754 mmHg 93%
    02:00 0°C° 0 mm 3 m/s 755 mmHg 94%
    03:00 -1°C° 0 mm 3 m/s 755 mmHg 94%
    04:00 -1°C° 0 mm 3 m/s 755 mmHg 95%
    05:00 -1°C° 0 mm 4 m/s 755 mmHg 93%
    06:00 -1°C° 0 mm 4 m/s 755 mmHg 90%
    07:00 0°C° 0 mm 5 m/s 755 mmHg 85%
    08:00 +1°C° 0 mm 6 m/s 754 mmHg 78%
    09:00 +3°C° 0 mm 7 m/s 754 mmHg 71%
    10:00 +3°C° 0 mm 9 m/s 753 mmHg 64%
    11:00 +3°C° 0.1 mm 9 m/s 753 mmHg 64%
    12:00 +3°C° 0.1 mm 9 m/s 753 mmHg 64%
    13:00 +2°C° 0.1 mm 10 m/s 752 mmHg 65%
    14:00 +2°C° 0.5 mm 9 m/s 752 mmHg 64%
    15:00 +2°C° 0.5 mm 9 m/s 753 mmHg 64%
    16:00 +1°C° 0.5 mm 8 m/s 753 mmHg 64%
    17:00 0°C° 0 mm 7 m/s 754 mmHg 64%
    18:00 -1°C° 0 mm 6 m/s 754 mmHg 65%
    19:00 -1°C° 0 mm 4 m/s 755 mmHg 65%
    20:00 -1°C° 0 mm 4 m/s 756 mmHg 67%
    21:00 -2°C° 0 mm 4 m/s 756 mmHg 69%
    22:00 -2°C° 0 mm 4 m/s 757 mmHg 72%
    23:00 -2°C° 0 mm 4 m/s 758 mmHg 75%

    Mâine, 27 Martie, Miercuri

    Timp Temperatura Precipitaţii Vânt Presiune Umiditate
    00:00 -3°C° 0 mm 4 m/s 758 mmHg 78%
    01:00 -2°C° 0 mm 3 m/s 759 mmHg 81%
    02:00 -2°C° 0 mm 3 m/s 759 mmHg 81%
    03:00 -2°C° 0 mm 3 m/s 760 mmHg 82%
    04:00 -2°C° 0 mm 2 m/s 760 mmHg 83%
    05:00 -2°C° 0 mm 2 m/s 760 mmHg 79%
    06:00 -1°C° 0 mm 2 m/s 760 mmHg 74%
    07:00 +1°C° 0 mm 2 m/s 761 mmHg 69%
    08:00 +2°C° 0 mm 3 m/s 761 mmHg 62%
    09:00 +3°C° 0 mm 3 m/s 761 mmHg 55%
    10:00 +5°C° 0 mm 4 m/s 761 mmHg 48%
    11:00 +6°C° 0 mm 4 m/s 761 mmHg 46%
    12:00 +7°C° 0 mm 4 m/s 761 mmHg 45%
    13:00 +8°C° 0 mm 5 m/s 761 mmHg 43%
    14:00 +7°C° 0 mm 5 m/s 761 mmHg 50%
    15:00 +7°C° 0 mm 5 m/s 761 mmHg 58%
    16:00 +7°C° 0 mm 5 m/s 760 mmHg 65%
    17:00 +6°C° 0.3 mm 4 m/s 760 mmHg 73%
    18:00 +5°C° 0.3 mm 3 m/s 760 mmHg 82%
    19:00 +5°C° 0.3 mm 3 m/s 761 mmHg 90%
    20:00 +5°C° 0.2 mm 3 m/s 761 mmHg 90%
    21:00 +5°C° 0.2 mm 3 m/s 761 mmHg 91%
    22:00 +5°C° 0.2 mm 3 m/s 761 mmHg 91%
    23:00 +5°C° 0.1 mm 3 m/s 761 mmHg 92%

    Poimâine, 28 Martie, Joi

    Timp Temperatura Precipitaţii Vânt Presiune Umiditate
    00:00 +5°C° 0.1 mm 3 m/s 761 mmHg 94%
    01:00 +6°C° 0.1 mm 2 m/s 761 mmHg 95%
    02:00 +6°C° 0.1 mm 2 m/s 761 mmHg 96%
    03:00 +5°C° 0.1 mm 2 m/s 761 mmHg 96%
    04:00 +5°C° 0.1 mm 2 m/s 761 mmHg 97%
    05:00 +5°C° 0.1 mm 2 m/s 761 mmHg 96%
    06:00 +5°C° 0.1 mm 2 m/s 762 mmHg 95%
    07:00 +6°C° 0.1 mm 1 m/s 762 mmHg 94%
    08:00 +7°C° 0 mm 2 m/s 763 mmHg 88%
    09:00 +8°C° 0 mm 2 m/s 763 mmHg 82%
    10:00 +9°C° 0 mm 2 m/s 764 mmHg 75%
    11:00 +9°C° 0 mm 2 m/s 764 mmHg 73%
    12:00 +10°C° 0 mm 2 m/s 764 mmHg 70%
    13:00 +10°C° 0 mm 2 m/s 764 mmHg 67%
    14:00 +10°C° 0 mm 2 m/s 764 mmHg 67%
    15:00 +10°C° 0 mm 2 m/s 764 mmHg 67%
    16:00 +11°C° 0 mm 1 m/s 764 mmHg 66%
    17:00 +10°C° 0 mm 1 m/s 765 mmHg 70%
    18:00 +9°C° 0 mm 1 m/s 765 mmHg 75%
    19:00 +8°C° 0 mm 1 m/s 765 mmHg 79%
    20:00 +7°C° 0 mm 1 m/s 766 mmHg 81%
    21:00 +6°C° 0 mm 2 m/s 766 mmHg 82%
    22:00 +6°C° 0 mm 2 m/s 766 mmHg 84%
    23:00 +5°C° 0 mm 2 m/s 766 mmHg 86%

    29 Martie, Vineri

    Timp Temperatura Precipitaţii Vânt Presiune Umiditate
    00:00 +5°C° 0 mm 2 m/s 766 mmHg 88%
    01:00 +4°C° 0 mm 3 m/s 766 mmHg 90%
    02:00 +4°C° 0 mm 3 m/s 766 mmHg 91%
    03:00 +3°C° 0 mm 3 m/s 766 mmHg 92%
    04:00 +3°C° 0 mm 3 m/s 766 mmHg 93%
    05:00 +4°C° 0 mm 3 m/s 766 mmHg 92%
    06:00 +4°C° 0 mm 3 m/s 766 mmHg 91%
    07:00 +5°C° 0 mm 3 m/s 766 mmHg 90%
    08:00 +7°C° 0 mm 4 m/s 766 mmHg 85%
    09:00 +10°C° 0 mm 4 m/s 766 mmHg 79%
    10:00 +12°C° 0 mm 4 m/s 766 mmHg 74%
    11:00 +13°C° 0 mm 5 m/s 765 mmHg 70%
    12:00 +14°C° 0 mm 5 m/s 765 mmHg 66%
    13:00 +15°C° 0 mm 5 m/s 765 mmHg 61%
    14:00 +15°C° 0 mm 4 m/s 765 mmHg 61%
    15:00 +15°C° 0 mm 4 m/s 764 mmHg 61%
    16:00 +15°C° 0 mm 4 m/s 764 mmHg 61%
    17:00 +14°C° 0 mm 3 m/s 764 mmHg 66%
    18:00 +13°C° 0 mm 3 m/s 764 mmHg 72%
    19:00 +12°C° 0 mm 2 m/s 764 mmHg 77%
    20:00 +12°C° 0 mm 2 m/s 764 mmHg 81%
    21:00 +10°C° 0 mm 2 m/s 764 mmHg 84%
    22:00 +9°C° 0 mm 2 m/s 763 mmHg 88%
    23:00 +9°C° 0 mm 2 m/s 763 mmHg 89%

    30 Martie, Sâmbătă

    Timp Temperatura Precipitaţii Vânt Presiune Umiditate
    00:00 +8°C° 0 mm 2 m/s 763 mmHg 90%
    01:00 +8°C° 0 mm 2 m/s 763 mmHg 92%
    02:00 +7°C° 0 mm 2 m/s 763 mmHg 92%
    03:00 +7°C° 0 mm 2 m/s 763 mmHg 93%
    04:00 +7°C° 0 mm 2 m/s 763 mmHg 94%
    05:00 +7°C° 0 mm 3 m/s 762 mmHg 92%
    06:00 +8°C° 0 mm 3 m/s 762 mmHg 90%
    07:00 +8°C° 0 mm 3 m/s 762 mmHg 89%
    08:00 +10°C° 0 mm 3 m/s 762 mmHg 82%
    09:00 +12°C° 0 mm 3 m/s 762 mmHg 75%
    10:00 +14°C° 0 mm 4 m/s 762 mmHg 68%
    11:00 +14°C° 0 mm 4 m/s 761 mmHg 64%
    12:00 +15°C° 0 mm 4 m/s 760 mmHg 60%
    13:00 +17°C° 0 mm 4 m/s 760 mmHg 57%
    14:00 +17°C° 0 mm 4 m/s 759 mmHg 56%
    15:00 +17°C° 0 mm 4 m/s 759 mmHg 56%
    16:00 +17°C° 0 mm 4 m/s 758 mmHg 56%
    17:00 +14°C° 0 mm 3 m/s 758 mmHg 61%
    18:00 +13°C° 0 mm 3 m/s 758 mmHg 66%
    19:00 +13°C° 0 mm 2 m/s 758 mmHg 71%
    20:00 +12°C° 0 mm 2 m/s 757 mmHg 72%
    21:00 +10°C° 0 mm 2 m/s 757 mmHg 73%
    22:00 +10°C° 0 mm 2 m/s 757 mmHg 73%
    23:00 +9°C° 0 mm 2 m/s 756 mmHg 75%

    31 Martie, Duminică

    Timp Temperatura Precipitaţii Vânt Presiune Umiditate
    00:00 +9°C° 0 mm 2 m/s 756 mmHg 76%
    01:00 +8°C° 0 mm 2 m/s 756 mmHg 77%
    02:00 +8°C° 0 mm 2 m/s 755 mmHg 78%
    03:00 +8°C° 0 mm 2 m/s 755 mmHg 78%
    04:00 +7°C° 0 mm 2 m/s 755 mmHg 78%
    05:00 +8°C° 0 mm 2 m/s 755 mmHg 77%
    06:00 +8°C° 0 mm 2 m/s 755 mmHg 76%
    07:00 +8°C° 0 mm 2 m/s 755 mmHg 75%
    08:00 +9°C° 0 mm 2 m/s 755 mmHg 74%
    09:00 +11°C° 0 mm 3 m/s 755 mmHg 73%
    10:00 +12°C° 0 mm 3 m/s 755 mmHg 73%
    11:00 +10°C° 0.3 mm 4 m/s 755 mmHg 75%
    12:00 +8°C° 0.3 mm 5 m/s 755 mmHg 78%
    13:00 +7°C° 0.3 mm 6 m/s 756 mmHg 81%
    14:00 +7°C° 0.2 mm 6 m/s 756 mmHg 78%
    15:00 +7°C° 0.2 mm 5 m/s 756 mmHg 75%
    16:00 +7°C° 0.2 mm 5 m/s 757 mmHg 72%
    17:00 +6°C° 0 mm 4 m/s 757 mmHg 71%
    18:00 +6°C° 0 mm 4 m/s 758 mmHg 70%
    19:00 +5°C° 0 mm 4 m/s 758 mmHg 69%
    20:00 +4°C° 0 mm 4 m/s 759 mmHg 72%
    21:00 +2°C° 0 mm 5 m/s 759 mmHg 75%
    22:00 +1°C° 0 mm 5 m/s 760 mmHg 78%
    23:00 0°C° 0 mm 5 m/s 760 mmHg 77%
    Arată mai mult